| time (UTC) | temp F | wind direction | speed knots | gust knots | rain 1hr in | rain 24hr in | rain mn in | humidity % | barometer mb |
| 20260506030006 | 60 | 238 | 0.0 | 0.0 | 0.00 | 0.00 | 0.00 | 77 | 1014.5 |
| 20260506025506 | 60 | 238 | 0.0 | 0.0 | 0.00 | 0.00 | 0.00 | 76 | 1014.5 |
| 20260506025004 | 60 | 238 | 0.0 | 0.0 | 0.00 | 0.00 | 0.00 | 76 | 1014.5 |
| 20260506024504 | 61 | 238 | 0.0 | 0.0 | 0.00 | 0.00 | 0.00 | 76 | 1014.5 |
| 20260506024005 | 61 | 238 | 0.0 | 0.0 | 0.00 | 0.00 | 0.00 | 76 | 1014.5 |
| 20260506023505 | 61 | 238 | 0.0 | 0.0 | 0.00 | 0.00 | 0.00 | 75 | 1014.5 |
| 20260506022505 | 61 | 238 | 0.0 | 0.0 | 0.00 | 0.00 | 0.00 | 75 | 1014.5 |
| 20260506022004 | 61 | 238 | 0.0 | 0.0 | 0.00 | 0.00 | 0.00 | 75 | 1014.5 |
| 20260506021504 | 61 | 238 | 0.0 | 0.0 | 0.00 | 0.00 | 0.00 | 75 | 1013.5 |
| 20260506021004 | 61 | 81 | 0.0 | 0.0 | 0.00 | 0.00 | 0.00 | 75 | 1013.5 |
| 20260506020004 | 61 | 58 | 0.0 | 0.0 | 0.00 | 0.00 | 0.00 | 75 | 1014.5 |
| 20260506015504 | 61 | 58 | 0.0 | 0.0 | 0.00 | 0.00 | 0.00 | 75 | 1014.5 |
| 20260506015004 | 61 | 58 | 0.0 | 0.0 | 0.00 | 0.00 | 0.00 | 75 | 1014.5 |
| 20260506014504 | 61 | 58 | 0.0 | 0.0 | 0.00 | 0.00 | 0.00 | 75 | 1014.5 |
| 20260506014004 | 61 | 35 | 0.0 | 0.0 | 0.00 | 0.00 | 0.00 | 76 | 1014.5 |
| 20260506013004 | 61 | 35 | 0.0 | 0.0 | 0.00 | 0.00 | 0.00 | 75 | 1014.5 |
| 20260506011504 | 61 | 51 | 0.0 | 0.0 | 0.00 | 0.00 | 0.00 | 75 | 1014.5 |
| 20260506011005 | 61 | 35 | 0.0 | 0.0 | 0.00 | 0.00 | 0.00 | 75 | 1014.5 |
| 20260506010504 | 61 | 49 | 0.0 | 0.0 | 0.00 | 0.00 | 0.00 | 76 | 1014.5 |
| 20260506005504 | 61 | 35 | 0.0 | 5.2 | 0.00 | 0.00 | 0.00 | 75 | 1013.5 |
| 20260506005004 | 61 | 35 | 0.0 | 5.2 | 0.00 | 0.00 | 0.00 | 75 | 1013.5 |
| 20260506004005 | 61 | 35 | 0.0 | 0.0 | 0.00 | 0.00 | 0.00 | 75 | 1014.5 |
| 20260506003005 | 61 | 305 | 0.0 | 0.0 | 0.00 | 0.00 | 0.00 | 75 | 1014.5 |
| 20260506002505 | 61 | 35 | 0.0 | 0.0 | 0.00 | 0.00 | 0.00 | 75 | 1014.5 |
| 20260506001004 | 62 | 192 | 0.0 | 0.0 | 0.00 | 0.00 | 0.00 | 74 | 1014.5 |
| 20260506000504 | 62 | 238 | 0.0 | 0.0 | 0.00 | 0.00 | 0.00 | 74 | 1014.5 |
| 20260506000005 | 62 | 238 | 0.0 | 0.0 | 0.00 | 0.00 | 0.00 | 74 | 1013.5 |
| 20260505235505 | 62 | 260 | 0.0 | 0.0 | 0.00 | 0.00 | 0.00 | 73 | 1013.5 |
| 20260505235005 | 62 | 282 | 0.0 | 0.0 | 0.00 | 0.00 | 0.00 | 74 | 1013.5 |
| 20260505234504 | 62 | 282 | 0.0 | 0.0 | 0.00 | 0.00 | 0.00 | 74 | 1014.5 |
| 20260505233505 | 62 | 215 | 0.0 | 0.0 | 0.00 | 0.00 | 0.00 | 74 | 1014.5 |
| 20260505233004 | 62 | 265 | 0.0 | 0.0 | 0.00 | 0.00 | 0.00 | 74 | 1014.5 |
| 20260505232504 | 62 | 282 | 0.0 | 0.0 | 0.00 | 0.00 | 0.00 | 73 | 1014.5 |
| 20260505232005 | 62 | 226 | 0.0 | 0.0 | 0.00 | 0.00 | 0.00 | 74 | 1014.5 |
| 20260505231504 | 62 | 305 | 0.0 | 0.0 | 0.00 | 0.00 | 0.00 | 74 | 1014.5 |
| 20260505231005 | 62 | 260 | 0.0 | 0.0 | 0.00 | 0.00 | 0.00 | 74 | 1014.5 |
| 20260505230504 | 62 | 260 | 0.0 | 0.0 | 0.00 | 0.00 | 0.00 | 74 | 1014.5 |
| 20260505230005 | 62 | 305 | 0.0 | 0.0 | 0.00 | 0.00 | 0.00 | 74 | 1014.5 |
| 20260505225504 | 61 | 35 | 0.0 | 0.0 | 0.00 | 0.00 | 0.00 | 74 | 1014.5 |
| 20260505225004 | 61 | 238 | 0.0 | 0.0 | 0.00 | 0.00 | 0.00 | 74 | 1014.5 |
| 20260505224504 | 61 | 83 | 0.0 | 0.0 | 0.00 | 0.00 | 0.00 | 74 | 1014.5 |
| 20260505224004 | 61 | 341 | 0.0 | 0.0 | 0.00 | 0.00 | 0.00 | 76 | 1014.5 |
| 20260505223004 | 61 | 305 | 0.0 | 0.0 | 0.00 | 0.00 | 0.00 | 75 | 1014.5 |
| 20260505222505 | 61 | 72 | 0.0 | 0.0 | 0.00 | 0.00 | 0.00 | 75 | 1014.5 |
| 20260505221504 | 61 | 35 | 0.0 | 0.0 | 0.00 | 0.00 | 0.00 | 75 | 1014.5 |
| 20260505221004 | 61 | 198 | 0.0 | 0.0 | 0.00 | 0.00 | 0.00 | 76 | 1014.5 |
| 20260505220505 | 61 | 246 | 0.0 | 0.0 | 0.00 | 0.00 | 0.00 | 76 | 1014.5 |
| 20260505220004 | 61 | 238 | 0.0 | 0.0 | 0.00 | 0.00 | 0.00 | 76 | 1014.5 |
| 20260505215503 | 61 | 148 | 0.0 | 0.0 | 0.00 | 0.00 | 0.00 | 76 | 1014.5 |
| 20260505215003 | 61 | 267 | 0.0 | 0.0 | 0.00 | 0.00 | 0.00 | 76 | 1014.5 |
| 20260505214503 | 61 | 189 | 0.0 | 0.0 | 0.00 | 0.00 | 0.00 | 77 | 1014.5 |
| 20260505214003 | 60 | 192 | 0.0 | 0.0 | 0.00 | 0.00 | 0.00 | 77 | 1014.5 |
| 20260505213004 | 60 | 17 | 0.0 | 0.0 | 0.00 | 0.00 | 0.00 | 77 | 1014.5 |
| 20260505212504 | 60 | 29 | 0.0 | 1.7 | 0.00 | 0.00 | 0.00 | 77 | 1014.5 |
| 20260505212003 | 60 | 35 | 0.0 | 1.7 | 0.00 | 0.00 | 0.00 | 77 | 1014.5 |
| 20260505211503 | 60 | 50 | 0.0 | 1.7 | 0.00 | 0.00 | 0.00 | 78 | 1014.5 |
| 20260505211004 | 60 | 102 | 0.0 | 0.0 | 0.00 | 0.00 | 0.00 | 78 | 1014.5 |
| 20260505210503 | 60 | 35 | 0.0 | 0.0 | 0.00 | 0.00 | 0.00 | 78 | 1014.5 |
| 20260505210004 | 60 | 215 | 0.0 | 0.0 | 0.00 | 0.00 | 0.00 | 78 | 1015.5 |
| 20260505205004 | 60 | 305 | 0.0 | 0.0 | 0.00 | 0.00 | 0.00 | 79 | 1015.5 |
| 20260505204504 | 60 | 22 | 0.0 | 0.0 | 0.00 | 0.00 | 0.00 | 79 | 1015.5 |
| 20260505204004 | 60 | 101 | 0.0 | 0.0 | 0.00 | 0.00 | 0.00 | 79 | 1015.5 |
| 20260505203004 | 59 | 105 | 0.0 | 0.0 | 0.00 | 0.00 | 0.00 | 79 | 1015.5 |
| 20260505202503 | 59 | 306 | 0.0 | 0.0 | 0.00 | 0.00 | 0.00 | 79 | 1015.5 |
| 20260505202004 | 59 | 98 | 0.0 | 0.0 | 0.00 | 0.00 | 0.00 | 79 | 1015.5 |
| 20260505201504 | 59 | 268 | 0.0 | 0.0 | 0.00 | 0.00 | 0.00 | 79 | 1015.5 |
| 20260505201004 | 59 | 80 | 0.0 | 4.3 | 0.00 | 0.00 | 0.00 | 79 | 1015.5 |
| 20260505195503 | 59 | 56 | 0.0 | 0.0 | 0.00 | 0.00 | 0.00 | 80 | 1015.5 |
| 20260505195004 | 59 | 60 | 0.0 | 0.0 | 0.00 | 0.00 | 0.00 | 80 | 1015.5 |
| 20260505194504 | 59 | 77 | 0.0 | 0.0 | 0.00 | 0.00 | 0.00 | 80 | 1015.5 |
| 20260505194004 | 59 | 85 | 0.0 | 5.2 | 0.00 | 0.00 | 0.00 | 81 | 1015.5 |
| 20260505193503 | 59 | 61 | 0.0 | 5.2 | 0.00 | 0.00 | 0.00 | 81 | 1015.5 |
| 20260505193010 | 59 | 199 | 0.0 | 0.0 | 0.00 | 0.00 | 0.00 | 81 | 1015.5 |
| 20260505192507 | 58 | 163 | 0.0 | 0.0 | 0.00 | 0.00 | 0.00 | 82 | 1015.5 |
| 20260505192007 | 58 | 282 | 0.0 | 0.0 | 0.00 | 0.00 | 0.00 | 82 | 1015.5 |
| 20260505191507 | 58 | 146 | 0.0 | 0.0 | 0.00 | 0.00 | 0.00 | 82 | 1015.5 |
| 20260505191007 | 58 | 260 | 0.0 | 0.0 | 0.00 | 0.00 | 0.00 | 83 | 1015.5 |
| 20260505190506 | 58 | 282 | 0.0 | 0.0 | 0.00 | 0.00 | 0.00 | 83 | 1015.5 |
| 20260505190007 | 57 | 80 | 0.0 | 1.7 | 0.00 | 0.00 | 0.00 | 83 | 1015.5 |
| 20260505185006 | 57 | 148 | 0.0 | 0.0 | 0.00 | 0.00 | 0.00 | 83 | 1015.5 |
| 20260505184507 | 57 | 167 | 0.0 | 0.0 | 0.00 | 0.00 | 0.00 | 84 | 1015.5 |
| 20260505184007 | 57 | 194 | 0.0 | 0.0 | 0.00 | 0.00 | 0.00 | 84 | 1015.5 |
| 20260505183506 | 56 | 125 | 0.0 | 0.0 | 0.00 | 0.00 | 0.00 | 83 | 1015.5 |
| 20260505182506 | 56 | 144 | 0.0 | 4.3 | 0.00 | 0.00 | 0.00 | 84 | 1015.5 |
| 20260505182006 | 57 | 192 | 0.0 | 1.7 | 0.00 | 0.00 | 0.00 | 84 | 1015.5 |
| 20260505181507 | 56 | 86 | 0.0 | 0.0 | 0.00 | 0.00 | 0.00 | 84 | 1015.5 |
| 20260505180506 | 56 | 202 | 0.0 | 5.2 | 0.00 | 0.00 | 0.00 | 84 | 1015.5 |
| 20260505180007 | 56 | 171 | 0.0 | 5.2 | 0.00 | 0.00 | 0.00 | 84 | 1015.5 |
| 20260505175506 | 56 | 169 | 0.0 | 4.3 | 0.00 | 0.00 | 0.00 | 84 | 1015.5 |
| 20260505175007 | 56 | 142 | 0.0 | 4.3 | 0.00 | 0.00 | 0.00 | 84 | 1015.5 |
| 20260505174506 | 56 | 159 | 0.0 | 0.0 | 0.00 | 0.00 | 0.00 | 84 | 1015.5 |
| 20260505174006 | 56 | 129 | 0.0 | 4.3 | 0.00 | 0.00 | 0.00 | 85 | 1015.5 |
| 20260505173507 | 56 | 168 | 0.0 | 4.3 | 0.00 | 0.00 | 0.00 | 85 | 1015.5 |
| 20260505173006 | 56 | 127 | 0.0 | 5.2 | 0.00 | 0.00 | 0.00 | 85 | 1015.5 |
| 20260505172507 | 55 | 168 | 0.0 | 5.2 | 0.00 | 0.00 | 0.00 | 85 | 1015.5 |
| 20260505172006 | 56 | 133 | 0.0 | 1.7 | 0.00 | 0.00 | 0.00 | 85 | 1015.5 |
| 20260505171506 | 56 | 151 | 0.0 | 1.7 | 0.00 | 0.00 | 0.00 | 85 | 1014.5 |
| 20260505171006 | 56 | 206 | 0.0 | 0.0 | 0.00 | 0.00 | 0.00 | 85 | 1014.5 |
| 20260505170506 | 56 | 238 | 0.0 | 0.0 | 0.00 | 0.00 | 0.00 | 86 | 1014.5 |
| 20260505170007 | 56 | 149 | 0.0 | 0.0 | 0.00 | 0.00 | 0.00 | 86 | 1015.5 |
| 20260505165506 | 55 | 185 | 0.0 | 1.7 | 0.00 | 0.00 | 0.00 | 86 | 1015.5 |
| 20260505165006 | 55 | 137 | 0.0 | 1.7 | 0.00 | 0.00 | 0.00 | 86 | 1015.5 |
| 20260505164506 | 55 | 140 | 0.0 | 0.0 | 0.00 | 0.00 | 0.00 | 87 | 1014.5 |
| 20260505164007 | 55 | 187 | 0.0 | 0.0 | 0.00 | 0.00 | 0.00 | 87 | 1014.5 |
| 20260505163506 | 55 | 156 | 0.0 | 1.7 | 0.00 | 0.00 | 0.00 | 87 | 1014.5 |
| 20260505163008 | 55 | 145 | 0.0 | 1.7 | 0.00 | 0.00 | 0.00 | 87 | 1014.5 |
| 20260505162506 | 55 | 204 | 0.9 | 1.7 | 0.00 | 0.00 | 0.00 | 87 | 1014.5 |
| 20260505162007 | 55 | 199 | 0.0 | 6.1 | 0.00 | 0.00 | 0.00 | 88 | 1014.5 |
| 20260505161507 | 54 | 162 | 0.0 | 6.1 | 0.00 | 0.00 | 0.00 | 88 | 1014.5 |
| 20260505161006 | 55 | 135 | 0.0 | 6.1 | 0.00 | 0.00 | 0.00 | 88 | 1014.5 |
| 20260505160506 | 54 | 179 | 0.0 | 4.3 | 0.00 | 0.00 | 0.00 | 88 | 1014.5 |
| 20260505153006 | 53 | 213 | 0.0 | 0.0 | 0.00 | 0.00 | 0.00 | 89 | 1014.5 |
| 20260505152506 | 53 | 170 | 0.0 | 0.0 | 0.00 | 0.00 | 0.00 | 89 | 1014.5 |
| 20260505152006 | 53 | 144 | 0.0 | 4.3 | 0.00 | 0.00 | 0.00 | 89 | 1014.5 |
| 20260505151506 | 53 | 179 | 0.9 | 4.3 | 0.00 | 0.00 | 0.00 | 89 | 1014.5 |
| 20260505150506 | 53 | 177 | 0.9 | 4.3 | 0.00 | 0.00 | 0.00 | 88 | 1014.5 |
| 20260505140506 | 53 | 192 | 0.0 | 4.3 | 0.00 | 0.00 | 0.00 | 89 | 1014.5 |
| 20260505124006 | 53 | 125 | 0.0 | 0.0 | 0.00 | 0.00 | 0.00 | 86 | 1014.5 |
| 20260505123506 | 53 | 125 | 0.0 | 0.0 | 0.00 | 0.00 | 0.00 | 86 | 1014.5 |
| 20260505122006 | 53 | 148 | 0.0 | 0.0 | 0.00 | 0.00 | 0.00 | 85 | 1014.5 |
| 20260505121006 | 53 | 138 | 0.0 | 0.0 | 0.00 | 0.00 | 0.00 | 86 | 1014.5 |
| 20260505120506 | 53 | 138 | 0.0 | 0.0 | 0.00 | 0.00 | 0.00 | 86 | 1014.5 |
| 20260505120006 | 53 | 138 | 0.0 | 0.0 | 0.00 | 0.00 | 0.00 | 86 | 1013.5 |
| 20260505115506 | 53 | 153 | 0.0 | 1.7 | 0.00 | 0.00 | 0.00 | 86 | 1013.5 |
| 20260505115006 | 53 | 192 | 0.0 | 2.6 | 0.00 | 0.00 | 0.00 | 86 | 1013.5 |
| 20260505114506 | 53 | 148 | 0.0 | 2.6 | 0.00 | 0.00 | 0.00 | 86 | 1014.5 |
| 20260505113506 | 53 | 192 | 0.0 | 0.0 | 0.00 | 0.00 | 0.00 | 86 | 1014.5 |
| 20260505113006 | 53 | 192 | 0.0 | 0.0 | 0.00 | 0.00 | 0.00 | 86 | 1014.5 |
| 20260505112506 | 53 | 215 | 0.0 | 0.0 | 0.00 | 0.00 | 0.00 | 85 | 1014.5 |
| 20260505112006 | 53 | 125 | 0.0 | 0.0 | 0.00 | 0.00 | 0.00 | 85 | 1014.5 |
| 20260505111506 | 53 | 305 | 0.0 | 0.0 | 0.00 | 0.00 | 0.00 | 85 | 1013.5 |
| 20260505111005 | 53 | 192 | 0.0 | 0.0 | 0.00 | 0.00 | 0.00 | 85 | 1013.5 |
| 20260505110506 | 53 | 137 | 0.0 | 0.0 | 0.00 | 0.00 | 0.00 | 85 | 1013.5 |
| 20260505102006 | 53 | 148 | 0.0 | 0.0 | 0.00 | 0.00 | 0.00 | 85 | 1013.5 |
| 20260505101506 | 53 | 148 | 0.0 | 0.0 | 0.00 | 0.00 | 0.00 | 85 | 1013.5 |
| 20260505101006 | 53 | 192 | 0.0 | 0.0 | 0.00 | 0.00 | 0.00 | 85 | 1013.5 |
| 20260505100505 | 53 | 238 | 0.0 | 0.0 | 0.00 | 0.00 | 0.00 | 85 | 1013.5 |
| 20260505100006 | 53 | 238 | 0.0 | 0.0 | 0.00 | 0.00 | 0.00 | 85 | 1013.5 |
| 20260505095505 | 53 | 238 | 0.0 | 0.0 | 0.00 | 0.00 | 0.00 | 85 | 1013.5 |
| 20260505095006 | 53 | 215 | 0.0 | 0.0 | 0.00 | 0.00 | 0.00 | 85 | 1013.5 |
| 20260505094505 | 53 | 170 | 0.0 | 6.1 | 0.00 | 0.00 | 0.00 | 84 | 1013.5 |
| 20260505094006 | 53 | 153 | 0.9 | 6.1 | 0.00 | 0.00 | 0.00 | 84 | 1013.5 |
| 20260505093505 | 53 | 153 | 0.0 | 6.1 | 0.00 | 0.00 | 0.00 | 84 | 1013.5 |
| 20260505093006 | 53 | 215 | 0.0 | 0.0 | 0.00 | 0.00 | 0.00 | 84 | 1012.5 |
| 20260505092505 | 53 | 215 | 0.0 | 0.0 | 0.00 | 0.00 | 0.00 | 84 | 1012.5 |
| 20260505092005 | 53 | 215 | 0.0 | 0.0 | 0.00 | 0.00 | 0.00 | 84 | 1012.5 |
| 20260505091505 | 53 | 215 | 0.0 | 0.0 | 0.00 | 0.00 | 0.00 | 83 | 1012.5 |
| 20260505091006 | 53 | 220 | 0.0 | 0.0 | 0.00 | 0.00 | 0.00 | 83 | 1012.5 |
| 20260505090506 | 53 | 215 | 0.0 | 0.0 | 0.00 | 0.00 | 0.00 | 83 | 1012.5 |
| 20260505090006 | 53 | 211 | 0.0 | 0.0 | 0.00 | 0.00 | 0.00 | 83 | 1012.5 |
| 20260505085505 | 53 | 238 | 0.0 | 0.0 | 0.00 | 0.00 | 0.00 | 82 | 1012.5 |
| 20260505085006 | 53 | 215 | 0.0 | 0.0 | 0.00 | 0.00 | 0.00 | 83 | 1012.5 |
| 20260505084005 | 54 | 238 | 0.0 | 4.3 | 0.00 | 0.00 | 0.00 | 82 | 1012.5 |
| 20260505083006 | 54 | 225 | 0.9 | 4.3 | 0.00 | 0.00 | 0.00 | 81 | 1012.5 |
| 20260505082506 | 54 | 219 | 0.0 | 4.3 | 0.00 | 0.00 | 0.00 | 81 | 1012.5 |
| 20260505082006 | 54 | 243 | 0.0 | 1.7 | 0.00 | 0.00 | 0.00 | 81 | 1012.5 |
| 20260505081505 | 54 | 215 | 0.0 | 1.7 | 0.00 | 0.00 | 0.00 | 80 | 1012.5 |
| 20260505081005 | 54 | 215 | 0.0 | 0.0 | 0.00 | 0.00 | 0.00 | 80 | 1012.5 |
| 20260505080506 | 54 | 215 | 0.0 | 0.0 | 0.00 | 0.00 | 0.00 | 80 | 1012.5 |
| 20260505080005 | 55 | 305 | 0.0 | 2.6 | 0.00 | 0.00 | 0.00 | 80 | 1012.5 |
| 20260505075505 | 55 | 233 | 0.0 | 2.6 | 0.00 | 0.00 | 0.00 | 79 | 1012.5 |
| 20260505075006 | 55 | 282 | 0.0 | 4.3 | 0.00 | 0.00 | 0.00 | 79 | 1012.5 |
| 20260505074505 | 55 | 217 | 0.0 | 4.3 | 0.00 | 0.00 | 0.00 | 80 | 1011.5 |
| 20260505073505 | 55 | 227 | 0.0 | 4.3 | 0.00 | 0.00 | 0.00 | 80 | 1011.5 |
| 20260505073005 | 55 | 215 | 0.9 | 4.3 | 0.00 | 0.00 | 0.00 | 80 | 1011.5 |
| 20260505072005 | 55 | 239 | 0.0 | 4.3 | 0.00 | 0.00 | 0.00 | 79 | 1011.5 |
| 20260505071506 | 56 | 215 | 0.0 | 4.3 | 0.00 | 0.00 | 0.00 | 79 | 1012.5 |
| 20260505071005 | 56 | 215 | 1.7 | 5.2 | 0.00 | 0.00 | 0.00 | 79 | 1012.5 |
| 20260505070506 | 56 | 200 | 0.9 | 5.2 | 0.00 | 0.00 | 0.00 | 78 | 1012.5 |
| 20260505065005 | 57 | 215 | 0.9 | 4.3 | 0.00 | 0.00 | 0.00 | 78 | 1012.5 |
| 20260505064005 | 57 | 215 | 0.9 | 4.3 | 0.00 | 0.00 | 0.00 | 77 | 1012.5 |
| 20260505063505 | 57 | 229 | 0.0 | 4.3 | 0.00 | 0.00 | 0.00 | 75 | 1012.5 |
| 20260505062505 | 58 | 198 | 0.0 | 1.7 | 0.00 | 0.00 | 0.00 | 76 | 1012.5 |
| 20260505061505 | 58 | 223 | 0.0 | 4.3 | 0.00 | 0.00 | 0.00 | 74 | 1012.5 |
| 20260505061005 | 59 | 220 | 0.0 | 4.3 | 0.00 | 0.00 | 0.00 | 75 | 1012.5 |
| 20260505060505 | 59 | 215 | 0.0 | 2.6 | 0.00 | 0.00 | 0.00 | 73 | 1012.5 |
| 20260505060005 | 59 | 240 | 0.0 | 4.3 | 0.00 | 0.00 | 0.00 | 73 | 1011.5 |
| 20260505055505 | 59 | 237 | 1.7 | 4.3 | 0.00 | 0.00 | 0.00 | 73 | 1011.5 |
| 20260505055006 | 60 | 236 | 0.0 | 4.3 | 0.00 | 0.00 | 0.00 | 72 | 1011.5 |
| 20260505054004 | 60 | 215 | 0.0 | 2.6 | 0.00 | 0.00 | 0.00 | 72 | 1011.5 |
| 20260505053504 | 61 | 215 | 0.0 | 2.6 | 0.00 | 0.00 | 0.00 | 71 | 1011.5 |
| 20260505052505 | 62 | 260 | 0.0 | 1.7 | 0.00 | 0.00 | 0.00 | 71 | 1011.5 |
| 20260505051505 | 62 | 238 | 0.0 | 0.0 | 0.00 | 0.00 | 0.00 | 71 | 1011.5 |
| 20260505050506 | 63 | 237 | 0.0 | 0.0 | 0.00 | 0.00 | 0.00 | 70 | 1011.5 |
| 20260505041505 | 65 | 215 | 0.0 | 1.7 | 0.00 | 0.00 | 0.00 | 71 | 1010.5 |
| 20260505041005 | 65 | 221 | 0.0 | 1.7 | 0.00 | 0.00 | 0.00 | 70 | 1010.5 |
| 20260505040505 | 65 | 218 | 0.0 | 1.7 | 0.00 | 0.00 | 0.00 | 70 | 1010.5 |
| 20260505035504 | 66 | 223 | 0.0 | 2.6 | 0.00 | 0.00 | 0.00 | 70 | 1010.5 |
| 20260505035008 | 66 | 215 | 0.0 | 2.6 | 0.00 | 0.00 | 0.00 | 70 | 1010.5 |
| 20260505034505 | 66 | 215 | 0.0 | 0.0 | 0.00 | 0.00 | 0.00 | 70 | 1010.5 |
| 20260505034006 | 66 | 228 | 0.0 | 0.0 | 0.00 | 0.00 | 0.00 | 69 | 1010.5 |
| 20260505033504 | 66 | 198 | 0.0 | 0.0 | 0.00 | 0.00 | 0.00 | 69 | 1010.5 |
| 20260505032505 | 67 | 215 | 0.0 | 0.0 | 0.00 | 0.00 | 0.00 | 69 | 1010.5 |
| 20260505032005 | 67 | 215 | 0.0 | 7.0 | 0.00 | 0.00 | 0.00 | 68 | 1010.5 |
| 20260505031504 | 67 | 215 | 0.0 | 7.0 | 0.00 | 0.00 | 0.00 | 68 | 1010.5 |
| 20260505031004 | 67 | 145 | 0.9 | 5.2 | 0.00 | 0.00 | 0.00 | 68 | 1010.5 |